QPF
0.00 0.00 0.00 0.00 0.00 0.00 0.00 0.00 0.00 0.00 0.00 0.00 0.00 0.00 0.00 0.00 0.00 0.00 0.00 0.00 0.00 0.00 0.00 0.00 0.00 0.00 0.00 0.00 0.00 0.00 0.00 0.00 0.00 0.00 0.00 0.00 0.00 0.00 0.00 0.00 0.00 0.00 0.00 0.00 0.00 0.00 0.00
0.00 0.00 0.00 0.00 0.00 0.00 0.00 0.00 0.00 0.00 0.00 0.00 0.00 0.00 0.00 0.00 0.00 0.00 0.00 0.00 0.00 0.00 0.00 0.00 0.00 0.00 0.00 0.00 0.00 0.00 0.00 0.00 0.00 0.00 0.00 0.00 0.00 0.00 0.00 0.00 0.00 0.00 0.00 0.00 0.00 0.00 0.00
0.00 0.00 0.00 0.00 0.00 0.00 0.00 0.00 0.00 0.00 0.00 0.00 0.00 0.00 0.00 0.00 0.00 0.00 0.00 0.00 0.00 0.00 0.00 0.00 0.00 0.00 0.00 0.00 0.00 0.00 0.00 0.00 0.00 0.00 0.00 0.00 0.00 0.00 0.00 0.00 0.00 0.00 0.00 0.00 0.00 0.00 0.00
0.00 0.00 0.00 0.00 0.00 0.00 0.00 0.00 0.00 0.00 0.00 0.00 0.00 0.00 0.00 0.00 0.00 0.00 0.00 0.00 0.00 0.00 0.00 0.00 0.00 0.00 0.00 0.00 0.00 0.00 0.00 0.00 0.00 0.00 0.00 0.00 0.00 0.00 0.00 0.00 0.00 0.00 0.00 0.00 0.00 0.00 0.00
0.00 0.00 0.00 0.00 0.00 0.00 0.00 0.00 0.00 0.00 0.00 0.00 0.00 0.00 0.00 0.00 0.00 0.00 0.00 0.00 0.00 0.00 0.00 0.00 0.00 0.00 0.00 0.00 0.00 0.00 0.00 0.00 0.00 0.00 0.00 0.00 0.00 0.00 0.00 0.00 0.00 0.00 0.00 0.00 0.00 0.00 0.00
0.00 0.00 0.00 0.00 0.00 0.00 0.00 0.00 0.00 0.00 0.00 0.00 0.00 0.00 0.00 0.00 0.00 0.00 0.00 0.00 0.00 0.00 0.00 0.00 0.00 0.00 0.00 0.00 0.00 0.00 0.00 0.00 0.00 0.00 0.00 0.00 0.00 0.00 0.00 0.00 0.00 0.00 0.00 0.00 0.00 0.00 0.00
0.00 0.00 0.00 0.00 0.00 0.00 0.00 0.00 0.00 0.00 0.00 0.00 0.00 0.00 0.00 0.00 0.00 0.00 0.00 0.00 0.00 0.00 0.00 0.00 0.00 0.00 0.00 0.00 0.00 0.00 0.00 0.00 0.00 0.00 0.00 0.00 0.00 0.00 0.00 0.00 0.00 0.00 0.00 0.00 0.00 0.00 0.00
0.00 0.00 0.00 0.00 0.00 0.00 0.00 0.00 0.00 0.00 0.00 0.00 0.00 0.00 0.00 0.00 0.00 0.00 0.00 0.00 0.00 0.00 0.00 0.00 0.00 0.00 0.00 0.00 0.00 0.00 0.00 0.00 0.00 0.00 0.00 0.00 0.00 0.00 0.00 0.00 0.00 0.00 0.00 0.00 0.00 0.00 0.00
0.00 0.00 0.00 0.00 0.00 0.00 0.00 0.00 0.00 0.00 0.00 0.00 0.00 0.00 0.00 0.00 0.00 0.00 0.00 0.00 0.00 0.00 0.00 0.00 0.00 0.00 0.00 0.00 0.00 0.00 0.00 0.00 0.00 0.00 0.00 0.00 0.00 0.00 0.00 0.00 0.00 0.00 0.00 0.00 0.00 0.00 0.00
0.00 0.00 0.00 0.00 0.00 0.00 0.00 0.00 0.00 0.00 0.00 0.00 0.00 0.00 0.00 0.00 0.00 0.00 0.00 0.00 0.00 0.00 0.00 0.00 0.00 0.00 0.00 0.00 0.00 0.00 0.00 0.00 0.00 0.00 0.00 0.00 0.00 0.00 0.00 0.00 0.00 0.00 0.00 0.00 0.00 0.00 0.00
0.00 0.00 0.00 0.00 0.00 0.00 0.00 0.00 0.00 0.00 0.00 0.00 0.00 0.00 0.00 0.00 0.00 0.00 0.00 0.00 0.00 0.00 0.00 0.00 0.00 0.00 0.00 0.00 0.00 0.00 0.00 0.00 0.00 0.00 0.00 0.00 0.00 0.00 0.00 0.00 0.00 0.00 0.00 0.00 0.00 0.00 0.00
0.00 0.00 0.00 0.00 0.00 0.00 0.00 0.00 0.00 0.00 0.00 0.00 0.00 0.00 0.00 0.00 0.00 0.00 0.00 0.00 0.00 0.00 0.00 0.00 0.00 0.00 0.00 0.00 0.00 0.00 0.00 0.00 0.00 0.00 0.00 0.00 0.00 0.00 0.00 0.00 0.00 0.00 0.00 0.00 0.00 0.00 0.00
0.00 0.00 0.00 0.00 0.00 0.00 0.00 0.00 0.00 0.00 0.00 0.00 0.00 0.00 0.00 0.00 0.00 0.00 0.00 0.00 0.00 0.00 0.00 0.00 0.00 0.00 0.00 0.00 0.00 0.00 0.00 0.00 0.00 0.00 0.00 0.00 0.00 0.00 0.00 0.00 0.00 0.00 0.00 0.00 0.00 0.00 0.00
0.00 0.00 0.00 0.00 0.00 0.00 0.00 0.00 0.00 0.00 0.00 0.00 0.00 0.00 0.00 0.00 0.00 0.00 0.00 0.00 0.00 0.00 0.00 0.00 0.00 0.00 0.00 0.00 0.00 0.00 0.00 0.00 0.00 0.00 0.00 0.00 0.00 0.00 0.00 0.00 0.00 0.00 0.00 0.00 0.01 0.00 0.00
0.00 0.00 0.00 0.00 0.00 0.00 0.00 0.00 0.00 0.00 0.00 0.00 0.00 0.00 0.00 0.00 0.00 0.00 0.00 0.00 0.00 0.00 0.00 0.00 0.00 0.00 0.00 0.00 0.00 0.00 0.00 0.00 0.00 0.00 0.01 0.01 0.00 0.00 0.00 0.00 0.00 0.00 0.00 0.00 0.00 0.00 0.00
0.00 0.00 0.00 0.00 0.00 0.00 0.00 0.00 0.00 0.00 0.00 0.00 0.00 0.00 0.00 0.00 0.00 0.00 0.00 0.00 0.00 0.00 0.00 0.00 0.00 0.00 0.00 0.00 0.00 0.00 0.00 0.00 0.00 0.00 0.00 0.00 0.00 0.00 0.00 0.00 0.00 0.00 0.00 0.00 0.01 0.01 0.00
0.00 0.00 0.00 0.00 0.00 0.00 0.00 0.00 0.00 0.00 0.00 0.00 0.00 0.00 0.00 0.00 0.00 0.00 0.00 0.00 0.00 0.00 0.00 0.01 0.01 0.01 0.00 0.00 0.00 0.00 0.00 0.00 0.00 0.00 0.00 0.00 0.01 0.00 0.00 0.00 0.00 0.00 0.00 0.00 0.02 0.02 0.00
0.00 0.00 0.00 0.00 0.00 0.00 0.00 0.00 0.00 0.00 0.00 0.00 0.00 0.01 0.00 0.00 0.01 0.02 0.01 0.00 0.00 0.00 0.00 0.01 0.00 0.00 0.00 0.00 0.00 0.00 0.00 0.00 0.00 0.00 0.00 0.00 0.01 0.00 0.00 0.00 0.00 0.00 0.00 0.00 0.02 0.01 0.00
0.00 0.00 0.00 0.00 0.00 0.00 0.00 0.00 0.00 0.00 0.00 0.00 0.01 0.01 0.00 0.00 0.02 0.01 0.00 0.00 0.00 0.00 0.01 0.03 0.01 0.00 0.00 0.00 0.00 0.00 0.00 0.00 0.00 0.00 0.01 0.01 0.02 0.01 0.00 0.00 0.00 0.00 0.00 0.01 0.02 0.02 0.00
0.00 0.00 0.00 0.00 0.00 0.00 0.00 0.00 0.00 0.00 0.00 0.00 0.00 0.01 0.00 0.00 0.00 0.01 0.04 0.07 0.05 0.05 0.04 0.03 0.02 0.00 0.00 0.01 0.01 0.00 0.00 0.00 0.00 0.01 0.02 0.02 0.00 0.00 0.01 0.00 0.01 0.01 0.00 0.01 0.03 0.02 0.01
0.00 0.00 0.00 0.00 0.00 0.00 0.00 0.00 0.00 0.01 0.00 0.00 0.01 0.00 0.00 0.00 0.01 0.02 0.06 0.09 0.06 0.05 0.03 0.02 0.04 0.01 0.04 0.06 0.04 0.02 0.01 0.02 0.02 0.02 0.02 0.01 0.01 0.00 0.00 0.00 0.00 0.00 0.00 0.00 0.01 0.01 0.06
0.00 0.00 0.00 0.00 0.00 0.01 0.01 0.00 0.00 0.01 0.01 0.01 0.01 0.01 0.00 0.00 0.00 0.00 0.01 0.01 0.00 0.00 0.02 0.03 0.03 0.01 0.05 0.07 0.03 0.06 0.08 0.07 0.04 0.01 0.00 0.00 0.01 0.00 0.00 0.00 0.00 0.00 0.00 0.00 0.00 0.02 0.05
0.00 0.00 0.00 0.00 0.00 0.01 0.01 0.01 0.01 0.01 0.02 0.02 0.01 0.00 0.01 0.01 0.00 0.00 0.00 0.00 0.01 0.00 0.01 0.01 0.02 0.03 0.03 0.01 0.00 0.01 0.01 0.02 0.01 0.00 0.00 0.01 0.01 0.01 0.01 0.00 0.00 0.00 0.00 0.00 0.00 0.02 0.02
0.00 0.01 0.01 0.00 0.00 0.00 0.01 0.01 0.01 0.01 0.04 0.03 0.02 0.04 0.04 0.02 0.01 0.00 0.00 0.00 0.00 0.01 0.01 0.00 0.00 0.01 0.00 0.00 0.00 0.01 0.01 0.01 0.01 0.01 0.00 0.02 0.02 0.03 0.01 0.00 0.00 0.00 0.00 0.00 0.00 0.01 0.01
0.02 0.02 0.01 0.00 0.00 0.01 0.01 0.01 0.01 0.02 0.04 0.05 0.03 0.07 0.09 0.06 0.03 0.03 0.01 0.00 0.01 0.00 0.01 0.01 0.01 0.01 0.01 0.00 0.02 0.03 0.01 0.00 0.00 0.00 0.00 0.00 0.02 0.03 0.02 0.00 0.00 0.00 0.00 0.00 0.01 0.00 0.00
0.01 0.01 0.01 0.00 0.00 0.01 0.01 0.01 0.02 0.03 0.04 0.04 0.02 0.03 0.09 0.15 0.07 0.04 0.03 0.02 0.02 0.03 0.04 0.01 0.01 0.01 0.02 0.04 0.04 0.02 0.01 0.00 0.00 0.00 0.00 0.01 0.03 0.05 0.03 0.02 0.00 0.00 0.00 0.00 0.00 0.00 0.00
0.01 0.02 0.02 0.01 0.01 0.01 0.02 0.02 0.02 0.02 0.02 0.06 0.03 0.03 0.05 0.09 0.05 0.04 0.05 0.04 0.05 0.07 0.09 0.03 0.02 0.04 0.04 0.05 0.05 0.01 0.00 0.00 0.01 0.00 0.00 0.02 0.03 0.04 0.02 0.04 0.00 0.00 0.00 0.00 0.00 0.00 0.00
0.01 0.01 0.02 0.02 0.02 0.01 0.01 0.01 0.00 0.00 0.01 0.05 0.01 0.02 0.05 0.04 0.01 0.01 0.02 0.02 0.04 0.07 0.08 0.12 0.15 0.07 0.04 0.04 0.02 0.00 0.01 0.00 0.00 0.00 0.00 0.01 0.04 0.03 0.04 0.05 0.01 0.00 0.00 0.00 0.00 0.00 0.00
0.02 0.03 0.02 0.02 0.01 0.01 0.00 0.00 0.00 0.01 0.03 0.06 0.04 0.01 0.02 0.05 0.02 0.00 0.00 0.00 0.00 0.02 0.08 0.16 0.09 0.03 0.06 0.07 0.04 0.08 0.10 0.04 0.01 0.01 0.00 0.00 0.01 0.02 0.03 0.02 0.01 0.02 0.01 0.01 0.00 0.00 0.00
MSLP
1026.35 1026.09 1025.76 1025.40 1025.00 1024.69 1024.36 1024.04 1023.71 1023.25 1022.73 1022.27 1021.88 1021.57 1021.21 1020.80 1020.44 1020.06 1019.61 1019.21 1018.83 1018.56 1018.31 1018.09 1017.82 1017.56 1017.28 1017.11 1017.85 1018.13 1017.89 1017.37 1016.83 1016.38 1016.20 1015.93 1015.64 1015.61 1015.84 1016.63 1017.29 1017.63 1018.77 1019.60 1020.41 1020.91 1021.49
1026.76 1026.46 1026.19 1025.75 1025.35 1024.90 1024.52 1024.25 1023.96 1023.48 1022.94 1022.41 1021.91 1021.50 1021.10 1020.74 1020.38 1019.94 1019.54 1019.24 1018.93 1018.60 1018.24 1017.98 1017.72 1017.48 1017.27 1017.78 1018.48 1018.33 1017.82 1017.32 1017.26 1016.82 1016.69 1016.40 1016.26 1016.32 1016.75 1017.48 1017.84 1018.72 1019.35 1020.15 1020.77 1021.20 1021.80
1026.94 1026.73 1026.51 1026.25 1025.89 1025.51 1025.13 1024.66 1024.19 1023.76 1023.32 1022.77 1022.20 1021.73 1021.22 1020.59 1020.12 1019.83 1019.51 1019.04 1018.62 1018.32 1018.11 1017.70 1017.48 1017.41 1017.50 1018.32 1018.36 1018.29 1017.87 1017.61 1017.59 1017.11 1016.85 1017.28 1017.12 1016.83 1017.32 1017.98 1018.82 1018.92 1019.29 1019.92 1020.42 1020.99 1021.53
1027.18 1026.86 1026.68 1026.28 1025.97 1025.68 1025.30 1024.99 1024.69 1024.23 1023.64 1023.12 1022.58 1021.96 1021.23 1020.77 1020.25 1019.68 1019.21 1018.92 1018.65 1018.36 1017.94 1017.53 1017.40 1017.21 1017.75 1018.59 1018.62 1018.49 1018.07 1017.63 1017.60 1017.32 1017.11 1017.38 1017.08 1017.23 1017.73 1018.56 1018.99 1018.79 1018.87 1018.79 1019.59 1020.54 1021.49
1027.80 1027.44 1026.75 1026.51 1026.23 1025.90 1025.59 1025.10 1024.61 1024.25 1023.85 1023.40 1022.86 1022.27 1021.65 1020.87 1020.13 1019.56 1018.87 1018.37 1018.13 1018.09 1018.03 1017.65 1017.35 1017.14 1017.79 1018.49 1018.65 1018.94 1019.04 1018.34 1017.85 1017.55 1017.46 1017.40 1017.36 1017.69 1018.24 1017.48 1017.66 1017.93 1017.03 1017.95 1019.08 1020.18 1020.93
1027.78 1027.49 1027.34 1026.83 1026.47 1026.01 1025.61 1025.25 1024.81 1024.34 1023.76 1023.22 1022.68 1022.08 1021.43 1020.86 1020.21 1019.24 1018.70 1018.00 1017.96 1018.01 1017.98 1017.79 1017.76 1017.89 1018.38 1018.64 1018.90 1018.80 1019.11 1019.13 1018.44 1017.92 1017.67 1017.60 1017.70 1017.60 1017.62 1017.11 1015.93 1016.16 1016.69 1017.34 1018.05 1019.80 1020.57
1027.63 1027.35 1026.94 1026.68 1026.32 1025.89 1025.50 1025.21 1024.76 1024.27 1023.83 1023.35 1022.86 1022.31 1021.45 1020.73 1019.87 1019.50 1018.49 1018.22 1018.29 1018.49 1018.51 1018.98 1019.30 1019.32 1019.21 1019.34 1019.22 1018.93 1019.24 1018.92 1018.36 1018.14 1017.63 1018.10 1017.84 1017.35 1017.01 1017.51 1017.47 1017.02 1017.12 1017.25 1018.37 1020.08 1020.42
1027.67 1027.31 1026.93 1026.62 1026.32 1025.93 1025.48 1024.99 1024.51 1024.10 1023.72 1023.21 1022.72 1022.20 1021.50 1020.77 1020.16 1019.43 1018.96 1019.76 1021.12 1021.28 1019.88 1019.67 1019.72 1019.90 1020.01 1020.14 1019.66 1019.42 1019.23 1019.12 1018.72 1018.34 1018.80 1018.76 1018.36 1018.96 1019.00 1019.02 1018.91 1018.69 1018.47 1018.34 1019.27 1020.55 1020.76
1027.62 1027.24 1026.87 1026.60 1026.25 1025.81 1025.48 1025.07 1024.65 1024.09 1023.65 1023.20 1022.67 1022.05 1021.38 1020.72 1020.13 1020.11 1020.55 1021.18 1021.57 1021.54 1020.47 1019.67 1019.90 1019.96 1020.47 1020.46 1020.50 1020.42 1020.08 1019.59 1018.98 1019.01 1019.34 1019.32 1020.03 1020.26 1020.22 1019.98 1019.81 1019.72 1019.53 1019.66 1020.24 1020.40 1020.18
1027.47 1027.23 1026.91 1026.53 1026.12 1025.73 1025.40 1024.96 1024.54 1024.11 1023.67 1023.25 1022.89 1022.29 1021.52 1020.57 1020.39 1020.97 1021.23 1021.52 1021.61 1021.21 1020.41 1019.55 1019.40 1019.75 1020.14 1020.06 1020.29 1020.53 1020.43 1020.33 1020.00 1019.68 1019.85 1020.19 1020.91 1021.11 1021.12 1021.14 1020.79 1020.49 1020.85 1021.16 1021.00 1020.81 1019.96
1027.40 1027.07 1026.78 1026.37 1026.00 1025.69 1025.26 1024.88 1024.44 1024.01 1023.59 1023.21 1022.92 1022.49 1021.89 1021.31 1021.37 1021.26 1021.75 1021.66 1021.55 1021.15 1019.94 1019.35 1019.43 1019.91 1019.58 1019.94 1020.27 1020.52 1020.76 1019.88 1019.61 1020.03 1020.24 1020.09 1021.04 1021.52 1021.76 1021.51 1021.95 1022.04 1022.07 1021.82 1021.62 1021.15 1021.08
1027.58 1027.28 1026.95 1026.46 1025.90 1025.50 1025.10 1024.62 1024.26 1023.72 1023.34 1023.08 1022.75 1022.42 1022.13 1021.66 1021.48 1021.54 1021.52 1021.29 1021.45 1020.48 1018.58 1018.38 1018.88 1019.21 1019.52 1019.64 1019.86 1020.21 1020.49 1020.43 1020.34 1019.97 1020.29 1020.63 1021.87 1021.87 1022.06 1022.49 1022.60 1022.77 1022.43 1022.17 1021.89 1021.23 1020.12
1027.83 1027.37 1026.90 1026.46 1026.14 1025.59 1024.96 1024.48 1024.01 1023.59 1023.12 1022.71 1022.44 1022.02 1021.75 1021.96 1021.64 1021.61 1021.45 1020.88 1020.22 1019.23 1017.87 1018.30 1018.63 1019.01 1019.15 1018.96 1019.20 1019.62 1019.92 1020.22 1020.20 1019.99 1020.11 1020.83 1021.28 1022.18 1022.78 1022.79 1023.04 1022.93 1022.37 1021.23 1020.47 1020.41 1018.26
1027.77 1027.29 1026.98 1026.49 1025.86 1025.55 1024.98 1024.38 1023.86 1023.22 1022.82 1022.48 1022.22 1021.70 1020.86 1020.94 1021.24 1021.37 1021.02 1020.48 1019.21 1017.55 1017.57 1018.15 1018.56 1018.75 1018.82 1018.84 1018.90 1018.97 1019.20 1018.98 1019.42 1019.80 1019.93 1020.10 1020.75 1022.03 1022.60 1022.75 1022.37 1022.50 1021.94 1020.45 1019.75 1018.75 1017.76
1027.99 1027.38 1026.94 1026.39 1025.87 1025.39 1024.86 1024.02 1023.53 1022.97 1022.51 1022.41 1021.82 1021.28 1020.93 1020.86 1020.91 1020.92 1020.72 1020.08 1018.29 1017.86 1018.11 1018.46 1018.45 1018.34 1018.22 1018.59 1019.02 1018.65 1018.58 1018.31 1018.60 1019.08 1019.49 1020.17 1020.63 1022.08 1022.78 1023.14 1023.10 1022.72 1022.31 1021.67 1020.18 1020.03 1018.89
1028.24 1027.60 1027.17 1026.62 1025.99 1025.44 1024.92 1024.17 1023.46 1022.78 1022.24 1022.29 1022.00 1021.55 1020.87 1021.13 1021.44 1021.24 1020.24 1018.97 1017.82 1017.61 1018.21 1018.86 1018.93 1018.63 1018.11 1018.19 1018.56 1018.56 1018.02 1018.02 1018.79 1019.42 1020.08 1020.12 1020.58 1021.75 1022.87 1023.34 1023.40 1022.98 1022.42 1021.95 1021.11 1019.85 1017.65
1028.01 1027.63 1027.33 1026.76 1026.05 1025.54 1024.98 1024.34 1023.73 1023.01 1022.68 1022.36 1022.06 1021.72 1021.25 1021.15 1020.87 1020.72 1020.06 1019.02 1018.50 1018.59 1018.86 1019.35 1019.39 1019.26 1018.23 1017.87 1017.92 1017.97 1017.59 1018.34 1019.16 1020.68 1021.29 1020.90 1021.17 1022.03 1022.94 1022.62 1021.83 1023.40 1022.56 1021.88 1021.07 1020.15 1018.66
1027.72 1027.52 1027.24 1026.72 1026.20 1025.73 1025.07 1024.44 1023.89 1023.20 1022.81 1022.45 1022.30 1021.73 1021.30 1021.22 1021.43 1021.04 1019.87 1019.08 1018.57 1018.94 1019.63 1020.01 1020.25 1019.65 1018.91 1018.16 1017.76 1017.80 1017.36 1017.23 1018.57 1019.41 1020.70 1021.31 1021.48 1021.45 1021.25 1021.66 1022.44 1022.47 1021.87 1021.37 1020.33 1019.75 1019.43
1027.65 1027.32 1027.01 1026.59 1026.15 1025.60 1025.16 1024.66 1024.00 1023.37 1023.01 1022.92 1022.35 1021.42 1021.22 1021.07 1021.22 1020.41 1019.79 1019.64 1020.00 1019.88 1019.73 1020.06 1020.19 1019.67 1019.27 1018.77 1018.68 1017.97 1018.51 1019.48 1019.93 1019.93 1020.02 1020.83 1021.34 1020.91 1020.40 1022.32 1022.64 1022.20 1021.44 1021.23 1021.04 1020.25 1019.03
1027.62 1027.10 1026.80 1026.31 1025.88 1025.38 1024.87 1024.44 1024.05 1023.53 1023.21 1023.20 1022.61 1021.36 1021.14 1021.16 1020.90 1020.62 1020.59 1020.25 1020.50 1020.92 1021.32 1021.19 1020.87 1020.44 1020.17 1019.60 1019.43 1019.10 1019.36 1020.74 1021.31 1021.56 1021.08 1020.98 1020.89 1019.69 1018.66 1018.39 1020.25 1021.19 1020.63 1020.61 1020.55 1020.03 1017.78
1027.05 1026.79 1026.43 1026.06 1025.64 1025.09 1024.60 1024.08 1023.71 1023.47 1023.30 1023.08 1022.33 1021.07 1020.66 1020.62 1020.41 1020.66 1020.80 1020.73 1020.69 1020.73 1021.12 1021.07 1021.03 1020.73 1020.65 1020.72 1020.21 1019.85 1019.92 1020.62 1021.44 1021.78 1022.26 1021.97 1020.71 1019.71 1018.18 1018.10 1018.89 1018.34 1018.55 1019.31 1018.75 1016.59 1017.67
1026.92 1026.53 1026.14 1025.57 1025.10 1024.84 1024.35 1024.01 1023.68 1023.18 1022.97 1022.79 1021.95 1021.46 1021.30 1020.40 1020.13 1020.17 1020.26 1019.50 1019.45 1019.50 1020.53 1020.48 1020.76 1020.05 1020.78 1020.71 1019.65 1019.08 1019.72 1020.64 1020.42 1021.67 1021.94 1021.71 1020.86 1020.29 1018.31 1018.19 1018.16 1017.32 1016.87 1016.46 1015.61 1015.19 1014.92
1026.47 1025.93 1025.50 1025.15 1024.72 1024.44 1024.09 1023.76 1023.49 1023.17 1022.95 1022.27 1021.40 1021.25 1021.05 1019.95 1019.69 1019.59 1019.16 1018.67 1018.50 1019.28 1018.92 1018.76 1019.31 1019.86 1020.21 1019.74 1019.61 1019.47 1019.55 1019.72 1020.11 1020.86 1021.27 1021.64 1021.40 1020.72 1018.41 1018.47 1018.24 1016.18 1013.93 1013.97 1013.90 1013.30 1013.39
1025.88 1025.53 1025.10 1024.74 1024.26 1023.96 1023.71 1023.36 1023.10 1022.75 1022.53 1022.21 1021.48 1021.53 1020.73 1018.91 1018.82 1018.24 1017.98 1018.03 1017.97 1018.17 1018.34 1018.76 1019.17 1019.70 1019.55 1019.84 1020.05 1020.28 1020.22 1020.33 1020.34 1020.37 1020.63 1021.03 1021.30 1021.16 1019.34 1018.85 1016.52 1012.75 1013.45 1013.68 1013.17 1013.15 1013.26
1024.82 1024.68 1024.54 1024.11 1023.70 1023.48 1023.15 1022.98 1022.67 1022.22 1021.78 1021.71 1021.57 1021.72 1020.39 1018.76 1018.50 1018.13 1017.88 1017.56 1017.33 1017.69 1018.30 1018.76 1019.14 1019.49 1019.95 1020.44 1020.26 1019.91 1019.55 1019.58 1019.15 1019.84 1020.41 1020.84 1021.14 1020.59 1019.61 1017.93 1013.95 1012.40 1013.99 1014.35 1014.04 1012.38 1012.38
1024.38 1024.02 1023.66 1023.43 1023.20 1022.75 1022.67 1022.37 1022.13 1021.89 1021.43 1021.01 1021.03 1021.08 1020.96 1019.36 1018.09 1017.66 1017.93 1017.67 1017.51 1017.32 1017.84 1018.88 1020.20 1020.31 1020.42 1020.23 1020.02 1018.75 1017.99 1017.72 1018.63 1019.78 1020.23 1020.73 1020.91 1020.74 1019.67 1018.56 1015.33 1013.88 1014.64 1015.17 1015.13 1013.56 1012.92
1023.67 1023.39 1023.06 1022.83 1022.59 1022.24 1022.09 1021.79 1021.71 1021.22 1021.06 1020.74 1020.36 1020.58 1020.28 1019.51 1018.34 1018.51 1017.95 1017.75 1017.92 1018.00 1018.30 1019.26 1020.31 1020.83 1020.79 1019.88 1019.33 1018.23 1017.03 1017.27 1017.61 1018.20 1019.53 1020.21 1020.26 1019.26 1019.11 1018.07 1015.25 1014.15 1015.18 1015.87 1016.08 1015.07 1014.34
1022.98 1022.59 1022.33 1021.96 1021.86 1021.68 1021.55 1021.16 1021.15 1020.74 1020.36 1020.16 1019.71 1019.73 1019.85 1018.88 1017.60 1017.65 1017.60 1017.82 1017.98 1018.05 1018.44 1019.44 1020.55 1020.55 1020.56 1019.83 1018.46 1017.05 1016.67 1016.45 1016.95 1016.79 1017.57 1018.05 1018.70 1018.59 1018.75 1018.46 1016.32 1015.34 1016.29 1016.43 1015.82 1015.71 1015.45
1022.31 1021.96 1021.66 1021.32 1021.28 1021.12 1020.93 1020.80 1020.48 1020.09 1019.74 1019.44 1019.23 1019.18 1019.17 1018.85 1017.73 1017.49 1017.13 1017.10 1017.10 1017.37 1017.83 1018.97 1018.19 1018.61 1018.80 1018.59 1017.61 1016.98 1016.78 1016.84 1016.43 1016.20 1016.82 1017.30 1016.46 1016.71 1016.81 1015.32 1015.03 1015.29 1015.67 1016.02 1016.61 1016.41 1016.76
Thickness
5653 5654 5656 5657 5658 5659 5660 5661 5661 5663 5666 5668 5670 5670 5671 5673 5674 5675 5677 5678 5678 5678 5677 5677 5677 5677 5678 5677 5671 5666 5667 5669 5670 5671 5669 5669 5669 5666 5662 5652 5646 5644 5629 5621 5613 5608 5605
5648 5650 5651 5653 5655 5656 5657 5657 5658 5660 5662 5665 5667 5669 5671 5672 5672 5673 5674 5674 5674 5675 5676 5675 5674 5674 5674 5671 5661 5661 5664 5666 5663 5664 5661 5662 5660 5657 5648 5637 5639 5627 5620 5612 5606 5602 5595
5643 5644 5644 5644 5645 5647 5649 5651 5652 5654 5655 5658 5661 5664 5666 5669 5670 5670 5669 5671 5672 5672 5672 5673 5673 5671 5669 5663 5657 5656 5658 5658 5656 5658 5657 5649 5648 5650 5640 5629 5621 5619 5615 5608 5605 5600 5595
5638 5637 5637 5640 5640 5641 5642 5642 5643 5645 5648 5651 5654 5657 5661 5663 5665 5667 5668 5667 5667 5667 5668 5669 5669 5668 5663 5653 5650 5650 5651 5654 5652 5652 5651 5644 5646 5638 5631 5620 5613 5614 5614 5622 5605 5595 5583
5630 5632 5634 5634 5635 5636 5636 5639 5641 5642 5643 5644 5646 5649 5653 5656 5660 5663 5667 5668 5668 5666 5663 5664 5665 5663 5659 5647 5646 5641 5638 5643 5643 5644 5642 5640 5637 5630 5622 5629 5625 5613 5638 5620 5607 5586 5580
5626 5626 5627 5627 5627 5629 5630 5631 5634 5636 5638 5640 5644 5646 5648 5650 5654 5660 5662 5665 5664 5661 5659 5658 5656 5656 5649 5645 5637 5635 5630 5627 5632 5634 5634 5632 5628 5632 5624 5629 5647 5630 5623 5616 5618 5588 5572
5622 5624 5625 5625 5625 5626 5628 5628 5629 5631 5633 5635 5637 5639 5644 5647 5652 5652 5658 5658 5659 5657 5649 5639 5634 5633 5633 5630 5629 5630 5622 5623 5626 5626 5631 5616 5626 5632 5638 5620 5605 5608 5609 5613 5599 5561 5563
5616 5617 5620 5622 5623 5623 5623 5625 5628 5629 5630 5631 5633 5635 5638 5642 5644 5647 5648 5640 5625 5623 5639 5629 5624 5620 5617 5614 5623 5621 5618 5621 5618 5624 5603 5612 5622 5592 5583 5578 5582 5584 5591 5596 5575 5546 5542
5612 5615 5616 5616 5617 5618 5619 5621 5623 5625 5625 5626 5628 5630 5632 5635 5637 5633 5627 5621 5613 5611 5625 5626 5616 5614 5607 5605 5602 5601 5601 5601 5608 5607 5597 5608 5583 5566 5570 5567 5571 5572 5578 5575 5565 5544 5544
5608 5608 5608 5609 5611 5612 5612 5614 5615 5616 5618 5618 5618 5621 5624 5630 5628 5619 5616 5610 5605 5606 5624 5627 5618 5610 5602 5599 5602 5588 5584 5586 5585 5597 5582 5584 5556 5556 5557 5559 5562 5577 5541 5531 5529 5541 5570
5601 5601 5601 5603 5604 5603 5606 5606 5607 5608 5609 5610 5610 5610 5612 5614 5611 5612 5604 5600 5598 5599 5615 5612 5608 5596 5596 5597 5588 5583 5574 5581 5589 5576 5572 5589 5552 5548 5549 5552 5536 5541 5515 5515 5510 5517 5497
5594 5593 5592 5594 5596 5597 5598 5599 5600 5602 5602 5602 5602 5602 5601 5602 5600 5597 5594 5593 5590 5608 5603 5611 5600 5596 5593 5584 5580 5573 5570 5565 5560 5562 5551 5549 5527 5533 5538 5517 5514 5505 5505 5497 5490 5496 5524
5583 5584 5584 5585 5585 5587 5590 5590 5591 5591 5593 5594 5593 5594 5594 5588 5592 5585 5583 5586 5596 5596 5602 5600 5592 5581 5577 5586 5578 5565 5562 5563 5570 5574 5571 5535 5532 5513 5510 5513 5501 5497 5508 5550 5553 5513 5573
5571 5573 5573 5574 5576 5576 5578 5581 5582 5585 5584 5584 5583 5585 5590 5583 5578 5573 5574 5580 5577 5601 5595 5573 5569 5564 5574 5560 5562 5557 5558 5572 5533 5536 5551 5565 5570 5506 5502 5507 5516 5494 5506 5548 5543 5569 5565
5558 5561 5562 5564 5566 5567 5568 5571 5572 5574 5574 5573 5575 5577 5579 5574 5569 5564 5568 5562 5579 5583 5569 5565 5563 5567 5571 5551 5542 5547 5551 5563 5547 5527 5553 5539 5549 5487 5481 5477 5478 5485 5485 5467 5477 5442 5479
5549 5551 5551 5553 5555 5557 5558 5561 5564 5567 5568 5566 5565 5565 5574 5564 5556 5554 5562 5567 5577 5570 5554 5550 5557 5555 5559 5554 5545 5540 5552 5546 5531 5513 5501 5520 5536 5479 5467 5463 5458 5460 5461 5469 5457 5478 5511
5543 5542 5541 5542 5546 5546 5548 5550 5552 5554 5554 5554 5554 5556 5556 5551 5550 5553 5555 5561 5556 5547 5547 5541 5534 5529 5545 5547 5541 5540 5548 5526 5505 5481 5477 5488 5495 5471 5449 5457 5483 5436 5452 5442 5445 5454 5481
5535 5532 5530 5531 5532 5533 5535 5537 5538 5540 5539 5539 5536 5549 5539 5535 5535 5519 5532 5538 5543 5534 5518 5511 5504 5513 5526 5529 5523 5518 5539 5543 5502 5485 5481 5475 5470 5476 5482 5441 5428 5435 5450 5450 5477 5458 5429
5524 5523 5521 5521 5520 5520 5520 5521 5522 5523 5523 5522 5527 5536 5525 5523 5528 5529 5532 5525 5512 5505 5508 5494 5494 5501 5504 5509 5508 5510 5502 5475 5470 5472 5467 5458 5455 5461 5483 5425 5410 5416 5428 5424 5405 5409 5430
5511 5512 5510 5509 5509 5508 5508 5506 5504 5505 5505 5502 5506 5519 5513 5503 5497 5505 5504 5500 5491 5474 5470 5465 5467 5477 5473 5479 5481 5478 5476 5450 5442 5443 5444 5443 5441 5472 5511 5509 5434 5407 5415 5410 5407 5408 5433
5501 5499 5498 5496 5495 5496 5494 5494 5493 5488 5485 5484 5489 5503 5500 5509 5501 5484 5476 5472 5474 5476 5460 5458 5457 5459 5445 5441 5440 5448 5456 5443 5420 5424 5417 5420 5419 5437 5449 5454 5432 5436 5435 5418 5402 5421 5403
5486 5485 5484 5485 5483 5480 5480 5476 5474 5476 5473 5472 5476 5478 5470 5481 5477 5468 5465 5475 5481 5482 5455 5450 5439 5465 5433 5428 5456 5460 5439 5422 5435 5402 5404 5404 5408 5399 5420 5423 5418 5420 5428 5430 5436 5429 5420
5474 5473 5472 5470 5469 5466 5464 5462 5458 5456 5454 5456 5459 5457 5458 5472 5463 5454 5462 5465 5468 5451 5458 5460 5441 5432 5426 5433 5437 5436 5428 5415 5410 5401 5397 5379 5381 5379 5421 5391 5389 5415 5440 5435 5429 5433 5419
5468 5466 5464 5460 5457 5453 5449 5447 5443 5439 5436 5435 5438 5431 5435 5454 5451 5454 5455 5450 5443 5446 5437 5437 5428 5416 5422 5398 5392 5390 5387 5386 5386 5385 5390 5374 5365 5360 5383 5378 5415 5454 5407 5405 5422 5416 5410
5459 5455 5451 5449 5447 5442 5439 5435 5431 5428 5425 5421 5419 5408 5414 5432 5432 5430 5429 5434 5433 5424 5414 5408 5409 5394 5380 5376 5378 5384 5386 5374 5381 5371 5362 5362 5355 5359 5364 5379 5429 5443 5384 5381 5385 5418 5399
5445 5443 5440 5434 5430 5426 5422 5419 5414 5410 5408 5408 5405 5395 5388 5401 5420 5418 5407 5405 5408 5411 5407 5381 5358 5360 5359 5361 5366 5388 5406 5424 5379 5343 5342 5347 5343 5341 5342 5346 5400 5391 5366 5357 5361 5386 5369
5434 5430 5426 5420 5416 5412 5406 5402 5395 5393 5386 5384 5386 5372 5370 5374 5395 5385 5388 5387 5378 5375 5376 5355 5345 5341 5341 5355 5360 5377 5392 5378 5382 5366 5329 5325 5323 5336 5337 5339 5371 5385 5351 5341 5357 5380 5343
5420 5417 5413 5408 5400 5395 5389 5385 5378 5375 5371 5366 5368 5358 5351 5358 5382 5379 5377 5369 5366 5363 5366 5343 5333 5331 5329 5340 5357 5381 5368 5371 5352 5360 5335 5333 5324 5325 5324 5319 5336 5342 5325 5337 5337 5321 5325
5407 5402 5398 5393 5385 5379 5373 5366 5363 5359 5357 5354 5356 5349 5344 5345 5362 5362 5364 5362 5357 5355 5346 5328 5353 5342 5337 5339 5346 5348 5345 5329 5349 5367 5337 5333 5350 5337 5333 5348 5337 5331 5324 5317 5305 5308 5302